Home   Weather   Seoul   Past weeks

Flag for South Korea Past Weather in Seoul, South Korea — Yesterday and Last 2 Weeks

Now
59 °F

Fog.


Feels Like: 59 °F
Forecast: 50 / 80 °F
Wind: 2 mph from Northwest

Location: Seoul / Kimp'O International Airport

Current Time: May 1, 2017 at 9:30:20 am

Latest Report: May 1, 2017 at 8:00 am


Visibility: 1 mi

Pressure: 30.01 "Hg

Humidity: 82%

Dew Point: 54 °F

Location of SeoulLocation

Past Weather in Seoul — Graph

°F

Seoul Temperature Yesterday

Maximum temperature yesterday: 77 °F (at 1:00 pm)
Minimum temperature yesterday: 54 °F (at 5:00 am)
Average temperature yesterday: 64 °F

High & Low Weather Summary for the Past Weeks

 TemperatureHumidityPressure
High77 °F (Apr 30, 1:00 pm)88% (May 1, 3:00 am)30.12 "Hg (May 1, 3:00 am)
Low41 °F (Apr 21, 3:00 am)16% (Apr 26, 11:00 am)29.42 "Hg (Apr 18, 11:00 am)
Average57 °F54%29.85 "Hg
* Reported Apr 16 8:00 am — May 1 8:00 am, Seoul, Weather by CustomWeather, © 2017

Note: Actual official high and low records may vary slightly from our data, if they occured in-between our weather recording intervals... More about our weather records

Advertising

Seoul Weather History for the Previous 24 Hours

Scroll right to see more
 ConditionsComfort  
Time TempWeatherWind HumidityBarometerVisibility
8:00 am
Mon, May 1
59 °FFog.2 mph82%30.01 "Hg1 mi
7:00 am54 °FFog.1 mph88%30.01 "Hg1 mi
6:00 am50 °FCool.2 mph88%29.98 "Hg1 mi
5:00 am50 °FCool.3 mph88%29.95 "Hg1 mi
4:00 am52 °FLight fog.3 mph88%29.95 "Hg1 mi
3:00 am52 °FLight fog.2 mph88%29.92 "Hg1 mi
2:00 am52 °FFog.3 mph82%29.89 "Hg1 mi
1:00 am54 °FFog.1 mph82%29.89 "Hg1 mi
12:32 am54 °FFog.5 mph77%29.89 "Hg2 mi
12:00 am55 °FFog.5 mph77%29.89 "Hg2 mi
11:00 pm
Sun, Apr 30
57 °FFog.3 mph72%29.86 "Hg2 mi
10:00 pm55 °FFog.1 mph82%29.83 "Hg3 mi
9:00 pm55 °FFog.3 mph77%29.80 "Hg3 mi
8:00 pm59 °FClear.9 mph68%29.80 "Hg4 mi
7:00 pm64 °FClear.5 mph60%29.77 "Hg4 mi
6:00 pm68 °FClear.6 mph53%29.74 "Hg4 mi
5:00 pm70 °FPassing clouds.8 mph50%29.71 "HgN/A
4:00 pm73 °FSunny.12 mph44%29.71 "Hg10 mi
3:00 pm75 °FSunny.13 mph41%29.71 "Hg10 mi
2:00 pm77 °FPassing clouds.7 mph39%29.71 "HgN/A
1:00 pm77 °FSunny.12 mph34%29.71 "Hg10 mi
12:00 pm75 °FClear.12 mph39%29.71 "Hg4 mi
11:00 am72 °FClear.13 mph47%29.74 "Hg4 mi
10:00 am68 °FHaze.9 mph53%29.74 "Hg3 mi
9:00 am66 °FHaze.7 mph56%29.74 "Hg3 mi
Weather by CustomWeather, © 2017

See weather overviewHow to use our weather pages